Location: Corte Bragagnani
(45.3000°N, 11.1000°E)
Time: 09:30:25
(UTC+00:00)

Cosmos 2181 Rocket - Visible Passes

Search period start: 13 August 2020 00:00
Search period end: 23 August 2020 00:00
Orbit: 951 x 1016 km, 82.9° (Epoch: 12 August)

Date Brightness Start Highest point End Pass type
(mag) Time Alt. Az. Time Alt. Az. Time Alt. Az.
16 Aug 6.8 03:34:43 10° ESE 03:38:35 17° E 03:42:26 10° NE visible
19 Aug 6.8 03:12:37 10° ESE 03:16:21 17° E 03:20:03 10° NE visible
20 Aug 6.1 03:38:20 10° SE 03:43:39 31° E 03:48:56 10° NNE visible
22 Aug 6.7 02:50:31 10° ESE 02:54:06 16° E 02:57:41 10° NE visible
